Cold Bay, AK

9:56 PM AKDT on July 29, 2014 (GMT -0800)
Cold Bay (PACD) Elev 102 ft | 55.22 °N, 162.73 °W | Change Station

Current weather conditions updated 1 hour ago

Overcast
Overcast
57 °F
Feels Like 57 °F
N
15
Wind Variable Wind from NW

Tomorrow is forecast to be nearly the same temperature as today.

Today
High -- | Low -- °F
--% Chance of Precip.
Yesterday
High -- | Low -- °F
Precip. -- in
6:53 AM 10:59 PM
Waxing Crescent, 10% visible
Pressure 30.17 in
Visibility 10.0 miles
Clouds Mostly Cloudy 900 ft
Overcast 2200 ft
Dew Point 52 °F
Humidity 83%
Rainfall 0.01 in
Snow Depth Not available.
UV 0 out of 12
Pollen Not available.
Air Quality Not available.
Flu Activity Not available.
METAR PACD 300453Z AUTO 32013KT 10SM BKN009 OVC022 14/11 A3016 RMK AO2 SLP214 T01390111 TSNO

More Conditions Fewer Conditions

Pressure 30.17 in
Visibility 10.0 miles
Clouds Mostly Cloudy 900 ft
Overcast 2200 ft
Dew Point 52 °F
Humidity 83%
Rainfall 0.01 in
Snow Depth Not available.
UV 0 out of 12
Pollen Not available.
Air Quality Not available.
Flu Activity Not available.
METAR PACD 300453Z AUTO 32013KT 10SM BKN009 OVC022 14/11 A3016 RMK AO2 SLP214 T01390111 TSNO

More Conditions Fewer Conditions

10-Day Weather Forecast

Almanac

Astronomy

Jul. 29, 2014 Rise Set
Actual Time 6:53 AM AKDT 10:59 PM AKDT
Civil Twilight 6:06 AM AKDT 11:46 PM AKDT
Nautical Twilight 4:55 AM AKDT 12:56 AM AKDT
Astronomical Twilight 3:29 AM AKDT 2:24 AM AKDT
Moon 10:20 AM AKDT (7/29) 11:34 PM AKDT (7/29)
Length of Visible Light 17h 40m
Length of Day
16h 05m
Tomorrow will be 3m 36s shorter.
Waxing Crescent, 10% of the Moon is Illuminated
Jul 30
Waxing Crescent
Aug 3
First Quarter
Aug 10
Full
Aug 17
Last Quarter
Aug 25
New

Yesterday's Extremes

State Highs State Lows

Community

WunderPhotos

Upload Photos

1,739,006 photos uploaded!

WunderBlogs® & News

By Dr. Jeff Masters
Director of Meteorology, Weather Underground
By Kari Strenfel
Meteorologist, Weather Underground
By Christopher C. Burt
Weather Historian, Weather Underground
July 29, 2014
July 29, 2014
July 29, 2014

Nearby

Snow Depth

Station Depth Elevation
Mcneil Canyon 1 in 1320 ft
MF Bradley River 215 in 2300 ft
Cooper Lake 6 in 1200 ft
Grouse Creek Divide 0 in 700 ft
Grandview 2 in 1100 ft

Earthquake Activity

City Distance Mag. Time & Date
No recent earthquake activity has been reported nearby.
Minimum magnitude displayed is 2.5.

Coastal Water Temperatures

Place Temperature
No Stations Reporting

Nearby Weather Stations

Station Location Temp. Dew Point Humidity Wind Precip. Elev Updated Type
HADS RUSSELL C NR COLD BAY AK , Cold Bay, AK 54 °F - - North  at  - 0.00 in / hr 66 ft 9:00 PM AKDT MADIS

Show More Stations Show Fewer Stations